Starlink 30402

operational
NORAD ID: 57827 Int'l Des: 2023-138 Owner: SPXS Country: US Constellation: starlink
LEOCIRCULAR

About Starlink 30402

Description loading...

Live Position

Loading 3D Globe...

Upcoming Passes

Altitude History

Altitude vs Time

uPlot chart will show altitude changes over time

Two-Line Element Set

1 57827U 23138V 26035.41296940 .00003856 00000-0 30036-3 0 9994
2 57827 43.0027 56.6007 0001300 287.2862 72.7838 15.02535408133702
Epoch: Feb 4, 2026 • Age: 22 hours

Current Status

Altitude 568.1 km
Velocity 7.58 km/s
Sub-Earth Point -34.87°S, 108.16°E
Launch Date Sep 9, 2023
Age 2.4 years
Type internet

Technical Details

Classification Payload
Mass 730.00 kg
Dry Mass 700.00 kg
Total Mass 730.00 kg
Length 0.30 m
Diameter 4.10 m
Span 29.00 m
Shape Box + pan
Manufacturer SPXS
Bus Type Starlink V2M
Phase Status In Orbit
Owner/State SPXS/US

Large Constellations

Loading constellations...